TimeEST,TemperatureF,Dew PointF,Humidity,Sea Level PressureIn,VisibilityMPH,Wind Direction,Wind SpeedMPH,Gust SpeedMPH,PrecipitationIn,Events,Conditions,WindDirDegrees,DateUTC
12:54 AM,39.0,16.0,39,30.32,10.0,SE,9.2,-,N/A,,Overcast,140,2013-02-22 05:54:00
1:54 AM,37.9,16.0,41,30.33,10.0,SE,8.1,-,N/A,,Overcast,130,2013-02-22 06:54:00
2:54 AM,37.9,16.0,41,30.32,10.0,ESE,9.2,-,N/A,,Overcast,120,2013-02-22 07:54:00
3:54 AM,33.1,26.1,75,30.32,3.0,SSE,6.9,17.3,0.00,Snow,Light Snow,160,2013-02-22 08:54:00
4:54 AM,32.0,25.0,75,30.28,10.0,ESE,5.8,-,0.00,,Overcast,120,2013-02-22 09:54:00
5:06 AM,32.0,24.8,75,30.27,10.0,SE,6.9,-,0.00,Rain,Light Freezing Rain,140,2013-02-22 10:06:00
5:54 AM,32.0,25.0,75,30.30,10.0,SE,6.9,-,0.01,Rain,Light Freezing Rain,130,2013-02-22 10:54:00
6:54 AM,30.9,25.0,79,30.30,10.0,SE,5.8,-,0.04,,Overcast,130,2013-02-22 11:54:00
7:06 AM,30.2,24.8,80,30.28,9.0,SE,5.8,-,0.00,Rain,Light Freezing Rain,140,2013-02-22 12:06:00
7:34 AM,30.2,24.8,80,30.29,10.0,SSE,6.9,-,0.00,,Overcast,150,2013-02-22 12:34:00
7:54 AM,30.9,24.1,76,30.32,10.0,SE,4.6,-,0.00,,Overcast,140,2013-02-22 12:54:00
8:54 AM,30.9,21.9,69,30.34,10.0,SE,8.1,-,N/A,,Overcast,140,2013-02-22 13:54:00
9:54 AM,32.0,23.0,69,30.31,10.0,SE,8.1,-,N/A,,Overcast,130,2013-02-22 14:54:00
10:54 AM,32.0,23.0,69,30.31,10.0,SSE,6.9,-,N/A,,Overcast,150,2013-02-22 15:54:00
11:54 AM,34.0,24.1,67,30.30,10.0,SSE,6.9,-,N/A,,Overcast,160,2013-02-22 16:54:00
12:05 PM,35.6,24.8,65,30.27,10.0,South,8.1,-,N/A,,Overcast,170,2013-02-22 17:05:00
12:30 PM,33.8,24.8,70,30.26,10.0,SE,5.8,-,N/A,,Overcast,130,2013-02-22 17:30:00
12:54 PM,34.0,24.1,67,30.27,10.0,SSE,5.8,-,N/A,,Overcast,150,2013-02-22 17:54:00
1:54 PM,36.0,25.0,64,30.25,10.0,SE,4.6,-,N/A,,Overcast,130,2013-02-22 18:54:00
2:54 PM,37.0,26.1,65,30.23,10.0,SSE,9.2,-,N/A,,Overcast,150,2013-02-22 19:54:00
3:54 PM,37.0,26.1,65,30.23,10.0,SE,5.8,-,N/A,,Overcast,140,2013-02-22 20:54:00
4:54 PM,37.0,26.1,65,30.23,10.0,SE,8.1,-,N/A,,Overcast,140,2013-02-22 21:54:00
5:54 PM,36.0,25.0,64,30.22,10.0,ESE,8.1,-,N/A,,Overcast,120,2013-02-22 22:54:00
6:54 PM,36.0,27.0,70,30.22,10.0,SSE,8.1,-,0.00,Rain,Light Rain,150,2013-02-22 23:54:00
7:54 PM,36.0,27.0,70,30.20,10.0,SE,6.9,-,0.00,,Overcast,140,2013-02-23 00:54:00
8:54 PM,36.0,28.0,73,30.22,10.0,SSE,9.2,-,N/A,,Overcast,160,2013-02-23 01:54:00
9:54 PM,35.1,28.9,78,30.21,10.0,SE,5.8,-,N/A,,Overcast,130,2013-02-23 02:54:00
10:54 PM,35.1,28.9,78,30.21,10.0,SE,5.8,-,N/A,,Overcast,140,2013-02-23 03:54:00
11:54 PM,35.1,28.9,78,30.17,10.0,ESE,4.6,-,N/A,,Overcast,110,2013-02-23 04:54:00